Retour au catalogue

STARLINK-3829

ActifCommunicationsVLEO
NORAD 52348·PAYLOAD·🇺🇸 United States

Lancé Apr 29, 2022 depuis Cape Canaveral Space Force Station

Loading…

Prochains Passages (prochaines 24 heures)

TLE

FraisSource: CelesTrak SupGP

Époque: Sep 14, 2026, 21:50 UTC

1 52348C 22045T   26257.91020833  .00045053  00000+0  12888-2 0  2575
2 52348  53.1593  57.0795 0001197  84.4950 101.4603 15.35380798    16

Suivez STARLINK-3829 en temps réel avec AllMySat

Download on the App Store